Regional Weather Roundup
Issued by NWS Charleston, SC

Current Version | Previous Version | Graphics & Text | Print | Product List | Glossary Off
Versions: 1 2 3 4 5 6 7 8 9 10 11 12 13 14 15 16 17 18 19 20 21 22 23 24 25 26 27 28 29 30 31 32 33 34 35 36 37 38 39 40 41 42 43 44 45 46 47 48 49 50
292 ASUS42 KCHS 251028 RWRCHS REGIONAL WEATHER ROUNDUP NATIONAL WEATHER SERVICE CHARLESTON SC 600 AM EDT MON JUL 25 2016 NOTE: "FAIR" INDICATES FEW OR NO CLOUDS BELOW 12,000 FEET WITH NO SIGNIFICANT WEATHER AND/OR OBSTRUCTIONS TO VISIBILITY. NOT ALL STATIONS ARE QUALITY CONTROLLED. USE DATA WITH CAUTION... ESPECIALLY DEWPOINT OBSERVATIONS. SCZ027-030-031-034>040-042>050-251100- ...SOUTHEAST SOUTH CAROLINA... CITY SKY/WX TMP DP RH WIND PRES REMARKS N CHARLESTON PTCLDY 79 74 84 SE3 30.05R WATERFRONT PRK N/A 82 77 84 VRB2 30.02R HX 90 MOUNT PLEASANT FAIR 75 75 100 CALM 30.06R JOHNS ISLAND FAIR 79 75 89 CALM 30.06R PINOPOLIS N/A 79 75 89 CALM 29.97R MONCKS CORNER FAIR 72 70 94 CALM 30.07R SUMMERVILLE NOT AVBL BEAUFORT MCAS CLEAR 78 74 87 CALM 30.05R BEAUFORT ARPT FAIR 79 73 83 CALM 30.05R HILTON HEAD IS NOT AVBL WALTERBORO SUNNY 77 77 100 CALM 30.07R ALLENDALE FAIR 77 72 83 CALM 30.06R ...SOUTHERN MIDLANDS AND PEE DEE... CITY SKY/WX TMP DP RH WIND PRES REMARKS GEORGETOWN FAIR 73 73 100 CALM 30.08R KINGSTREE FAIR 73 72 94 CALM 30.06R ORANGEBURG PTCLDY 76 74 93 CALM 30.06R BARNWELL NOT AVBL AIKEN FAIR 75 70 83 SW6 30.10R MANNING PTSUNNY 77 72 83 CALM 30.07R COLUMBIA PTCLDY 80 72 76 CALM 30.05R SUMTER MOCLDY 77 73 87 S5 30.04R FLORENCE MOCLDY 78 75 90 S5 30.06R MYRTLE BEACH PTCLDY 81 70 69 SW3 30.09R N MYRTLE BEACH MOCLDY 80 77 90 W5 30.06R $$ GAZ063-065-086>088-099>101-113>116-118-119-134>141-150-251100- ...SOUTHEAST GEORGIA... CITY SKY/WX TMP DP RH WIND PRES REMARKS SAVANNAH ARPT PTCLDY 77 72 84 CALM 30.05R HUNTER AAF CLEAR 75 75 100 CALM 30.03R FORT STEWART CLEAR 72 70 94 CALM 30.03R STATESBORO CLEAR 74 73 96 CALM 30.06R SYLVANIA NOT AVBL CLAXTON FAIR 72 72 100 CALM 30.06R ...CSRA...CENTRAL AND FAR SOUTHEAST GEORGIA... CITY SKY/WX TMP DP RH WIND PRES REMARKS THOMSON NOT AVBL AUGUSTA-BUSH CLOUDY 75 72 90 CALM 30.04R AUGUSTA-DANIEL CLOUDY 80 70 71 S5 30.06R SWAINSBORO FAIR 73 72 94 CALM 30.07R VIDALIA CLEAR 73 70 88 CALM 30.06R EASTMAN FAIR 73 73 100 CALM 30.08R HAZLEHURST FAIR 75 75 100 CALM 30.05R ALMA CLEAR 72 70 93 CALM 30.04R WAYCROSS CLEAR 75 74 96 CALM 30.05R JESUP FAIR 70 70 100 CALM 30.06R BAXLEY FAIR 72 72 100 CALM 30.05R BRUNSWICK CLEAR 75 73 94 CALM 30.06R SAINT SIMONS CLEAR 79 73 82 SW3 30.03R $$ SCZ027-028-034-036>038-045-046-048>050-GAZ119-141-251100- ...LAKE AND SUPPLEMENTAL COASTAL OBSERVATIONS... STATION/POSITION TIME TEMP WIND PRES WAVE SWELL AIR SEA DIR/SP/G HT/PER HT/PER/DIR (UTC) (F) (DEG/KT/KT) (MB) (FT/S) (FT/S/D) WINYAH BAY 0900 79 260/ 2 1017.0S LAKE MURRAY 0900 83 210/ 9/ 12 1016.3R ACE BASIN NERRS 0900 78 CALM 1017.0S FORT PULASKI 1000 81 88 260/ 2/ 3 1018.0R SAPELO ISLAND 1000 80 200/ 6 1017.0S $$ ANZ835-935-AMZ111-154-330-350-352-354-370-450-454-472-251100- ...C-MAN AND BUOY OBSERVATIONS... STATION/POSITION TIME TEMP WIND PRES WAVE SWELL AIR SEA DIR/SP/G HT/PER HT/PER/DIR (UTC) (F) (DEG/KT/KT) (MB) (FT/S) (FT/S/D) BUOY 41004 0950 85 86 210/ 10/ 12 1017.3R 2/ 8 2/140/ 8 BUOY 41008 0950 84 86 180/ 12/ 14 1017.0R 3/ 5 2/100/ 9 FOLLY BEACH CMAN 1000 83 220/ 10/ 12 1017.7R CAPERS NEARSHORE 1008 83 83 230/ 10/ 14 1017.8R FRIPP NEARSHORE 1008 85 86 220/ 12/ 16 1017.1R STATION/POSITION TIME TEMP WIND PRES WAVE SWELL AIR SEA DIR/SP/G HT/PER HT/PER/DIR (UTC) (F) (DEG/KT/KT) (MB) (FT/S) (FT/S/D) 5E ST. MARYS GA 1001 86 N/A 2/ 9 FRYING PAN BUOY 1000 84 85 200/ 10/ 14 1018.0R BUOY 41025 0950 84 85 230/ 16/ 17 1017.5R 3/ 4 2/140/ 8 CAPE LOOKOUT NC 1000 82 250/ 8/ 10 1017.8R BUOY 41002 0950 83 84 190/ 10/ 12 1018.9S 2/ 8 2/120/ 8 BUOY 41010 0920 83 86 130/ 6/ 8 1017.8S ST AUGUSTINE FL 1000 77 85 200/ 5/ 5 1018.2R $$

USA.gov is the U.S. government's official web portal to all federal, state and local government web resources and services.